Location: *
(60.1759°S, 155.0663°W)
Time: 05:20:20
(UTC+00:00)

Okean 1-7 - Pass Details

Date: 17 September 2019
Orbit: 590 x 620 km, 82.5° (Epoch: 23 October)

Event Time Altitude Azimuth Distance (km) Brightness Sun altitude
Rises 15:22:40 0° 200° (SSW) 2,898 6.4 -8.4°
Reaches altitude 10° 15:25:19 10° 216° (SW) 1,992 5.4 -8.0°
Maximum altitude 15:28:36 21° 264° (W) 1,404 4.3 -7.6°
Drops below altitude 10° 15:31:53 10° 313° (NW) 1,988 5.2 -7.2°
Sets 15:34:32 0° 328° (NNW) 2,890 6.1 -6.9°
